Location: *
(2.5500°S, 65.9667°W)
Time: 11:11:28
(UTC+00:00)

CZ-4 R/B - Pass Details

Date: 26 October 2021
Orbit: 580 x 588 km, 97.7° (Epoch: 29 November)

Event Time Altitude Azimuth Distance (km) Brightness Sun altitude
Rises 23:14:35 0° 170° (S) 2,817 8.0 -15.7°
Reaches altitude 10° 23:16:45 10° 170° (S) 1,913 7.1 -16.2°
Maximum altitude 23:20:54 86° 255° (WSW) 591 4.4 -17.2°
Drops below altitude 10° 23:25:02 10° 347° (NNW) 1,897 7.0 -18.2°
Sets 23:27:10 0° 348° (NNW) 2,792 7.9 -18.7°
